Weather History for CYRT - January, 2013

Change the Weather History Date:

Friday, January 4, 2013

  Actual Average Record
Temperature  
Mean Temperature -23 °F -  
Max Temperature -17 °F -15 °F 15 °F (2011)
Min Temperature -29 °F -26 °F -43 °F (1998)
Degree Days  
Heating Degree Days 88    
Moisture  
Dew Point -28 °F    
Average Humidity 69    
Maximum Humidity 77    
Minimum Humidity 52    
Precipitation  
Precipitation 0.00 in - - ()
Sea Level Pressure  
Sea Level Pressure 29.63 in    
Wind  
Wind Speed 15 mph ()    
Max Wind Speed 33 mph    
Max Gust Speed 40 mph    
Visibility 3.8 miles    
Events Snow    
Averages and records for this station are not official NWS values.
T = Trace of Precipitation, MM = Missing Value Source: Averaged Metar Reports

Daily Weather History Graph

Daily Weather History Graph

Search for Another Location

Airport or City:

Trip Planner

Search our weather history database for the weather conditions in past years. The results will help you decide how hot, cold, wet, or windy it might be!

Date:

Astronomy

Jan. 04, 2013 Rise Set
Actual Time 9:37 AM CST 2:49 PM CST
Civil Twilight 8:31 AM CST 3:56 PM CST
Nautical Twilight 7:28 AM CST 4:59 PM CST
Astronomical Twilight 6:31 AM CST 5:55 PM CST
Moon No Moon Rise 10:41 AM CST (1/4)
Length of Visible Light 7h 25m
Length of Day
5h 11m
Waning Gibbous, 55% of the Moon is Illuminated
Jan 4
Waning Gibbous
Jan 4
Last Quarter
Jan 11
New
Jan 18
First Quarter
Jan 26
Full

Hourly Weather History & Observations

Time (CST) Temp. Windchill Dew Point Humidity Pressure Visibility Wind Dir Wind Speed Gust Speed Precip Events Conditions
12:00 AM -10 °F - -16 °F 62% 29.60 in 4 mi ENE 9.2 mph - - Snow Snow
12:00 AM -9.4 °F -26.8 °F -16.6 °F 71% 29.60 in 4.0 mi ENE 9.2 mph - N/A Snow Ice Crystals
1:00 AM -11.2 °F -24.8 °F -16.6 °F 77% 29.62 in 5.0 mi NNE 5.8 mph - N/A Snow Ice Crystals
2:00 AM -13.0 °F -31.3 °F -18.4 °F 77% 29.64 in 8.0 mi North 9.2 mph - N/A   Scattered Clouds
3:00 AM -16.6 °F -37.9 °F -22.0 °F 76% 29.66 in 10.0 mi NNW 11.5 mph - N/A   Partly Cloudy
4:00 AM -18.4 °F -41.2 °F -25.6 °F 70% 29.68 in 10.0 mi NNW 12.7 mph - N/A   Clear
5:00 AM -22.0 °F -44.7 °F -29.2 °F 69% 29.67 in 10.0 mi NNW 11.5 mph - N/A   Clear
6:00 AM -21 °F - -27 °F 59% 29.66 in 15 mi NNW 10.4 mph - - Snow Snow
7:00 AM -18.4 °F -42.1 °F -25.6 °F 70% 29.66 in 3.0 mi WNW 13.8 mph - N/A Snow Ice Crystals
8:00 AM -18.4 °F -41.2 °F -23.8 °F 76% 29.65 in 3.0 mi WNW 12.7 mph - N/A Snow Ice Crystals
9:00 AM -18.4 °F -41.2 °F -25.6 °F 70% 29.65 in 4.0 mi WNW 12.7 mph - N/A Snow Ice Crystals
10:00 AM -20.2 °F -45.2 °F -27.4 °F 69% 29.63 in 4.0 mi WNW 15.0 mph - N/A Snow Ice Crystals
11:00 AM -22.0 °F -47.5 °F -29.2 °F 69% 29.62 in 5.0 mi WNW 15.0 mph - N/A Snow Ice Crystals
12:00 PM -22 °F - -29 °F 53% 29.61 in 10 mi WNW 17.3 mph - - Snow Snow
12:00 PM -22.0 °F -49.1 °F -29.2 °F 69% 29.61 in 10.0 mi WNW 17.3 mph - N/A Snow Low Drifting Snow
1:00 PM -23.8 °F -48.0 °F -29.2 °F 76% 29.61 in 12.0 mi West 12.7 mph - N/A Snow Low Drifting Snow
2:00 PM -23.8 °F -52.9 °F -29.2 °F 76% 29.61 in 3.0 mi WNW 19.6 mph - N/A Snow Ice Crystals
2:05 PM - - - N/A% - 2.0 mi NW 19.6 mph - N/A   Ice Crystals
2:37 PM - - - N/A% - 1.0 mi NW 23.0 mph 29.9 mph N/A   Ice Crystals
3:00 PM -25.6 °F -57.9 °F -31.0 °F 76% 29.62 in 1.0 mi NW 24.2 mph - N/A Snow Ice Crystals
3:18 PM - - - N/A% - 0.8 mi NW 19.6 mph - N/A   Ice Crystals
3:44 PM - - - N/A% - 0.5 mi NW 23.0 mph 28.8 mph N/A   Ice Crystals
3:50 PM - - - N/A% - 0.2 mi NW 29.9 mph 35.7 mph N/A   Heavy Ice Crystals
4:00 PM -27.4 °F -64.0 °F -34.6 °F 69% 29.62 in 0.2 mi NNW 32.2 mph - N/A Snow Heavy Ice Crystals
4:11 PM - - - N/A% - 0.5 mi NNW 28.8 mph - N/A   Ice Crystals
5:00 PM -27.4 °F -62.0 °F -34.6 °F 69% 29.63 in 0.5 mi NW 27.6 mph - N/A Snow Ice Crystals
6:00 PM -29 °F - -36 °F 52% 29.65 in 0 mi NNW 24.2 mph - - Snow Snow
6:00 PM -29.2 °F -62.1 °F -36.4 °F 68% 29.65 in 0.5 mi NNW 23.0 mph 31.1 mph N/A Snow Ice Crystals
7:00 PM -29.2 °F -65.5 °F -36.4 °F 68% 29.64 in 0.5 mi NW 29.9 mph 35.7 mph N/A Snow Ice Crystals
7:15 PM - - - N/A% - 0.2 mi NW 29.9 mph 38.0 mph N/A   Heavy Ice Crystals
7:44 PM - - - N/A% - 0.5 mi NW 32.2 mph 40.3 mph N/A   Ice Crystals
8:00 PM -29.2 °F -66.0 °F -36.4 °F 68% 29.65 in 0.5 mi NW 31.1 mph 39.1 mph N/A Snow Ice Crystals
10:00 PM -29.2 °F -66.5 °F -36.4 °F 68% 29.62 in 0.2 mi NNW 32.2 mph 38.0 mph N/A Snow Heavy Ice Crystals
11:00 PM -29.2 °F -66.9 °F -36.4 °F 68% 29.63 in 0.2 mi NNW 33.4 mph 40.3 mph N/A Snow Heavy Ice Crystals